Waarnemingen

Advertentie
Mijn weer
Baltasound, Groot Brittannië (3002): temperatuur & dauwpunt: 14.08.2018 00:00:00 - 20.08.2018 00:00:00 (BST)Baltasound, Groot Brittannië (3002): temperatuur -20cm: 14.08.2018 00:00:00 - 20.08.2018 00:00:00 (BST)Baltasound, Groot Brittannië (3002): windsnelheid & windstoten: 14.08.2018 00:00:00 - 20.08.2018 00:00:00 (BST)Baltasound, Groot Brittannië (3002): windrichting: 14.08.2018 00:00:00 - 20.08.2018 00:00:00 (BST)Baltasound, Groot Brittannië (3002): luchtdruk: 14.08.2018 00:00:00 - 20.08.2018 00:00:00 (BST)Baltasound, Groot Brittannië (3002): zicht: 14.08.2018 00:00:00 - 20.08.2018 00:00:00 (BST)Baltasound, Groot Brittannië (3002): neerslag: 14.08.2018 00:00:00 - 20.08.2018 00:00:00 (BST)
Datum & Tijd tt [°C] td [°C] tt -20cm [°C] ff [km/u] ff [kn] fx [km/u] fx [kn] dd ppp [hPa] vv [km] rr [mm]
20.08.2018 00:00:00 11,4 9,5 - 13 7 - - W 1016,1 30 0,0
19.08.2018 23:00:00 11,6 9,6 - 13 7 - - W 1016,0 28 0,0
19.08.2018 22:00:00 12,2 10,1 - 15 8 - - WNW 1016,0 22 0,0
19.08.2018 21:00:00 12,2 10,3 - 11 6 - - WNW 1015,9 24 0,0
19.08.2018 20:00:00 12,7 10,5 - 15 8 - - WNW 1016,0 24 0,0
19.08.2018 19:00:00 13,1 10,4 - 16 9 - - WNW 1015,9 23 0,0
19.08.2018 18:00:00 13,6 10,4 - 18 10 - - WNW 1015,9 30 0,0
19.08.2018 17:00:00 13,8 10,2 - 18 10 - - W 1015,8 20 0,0
19.08.2018 16:00:00 14,1 9,8 - 24 13 - - W 1015,5 30 0,0
19.08.2018 15:00:00 14,8 9,8 - 21 11 - - W 1015,4 45 0,0
19.08.2018 14:00:00 14,6 9,3 - 18 10 - - WNW 1015,1 26 0,0
19.08.2018 13:00:00 14,5 9,6 - 18 10 - - W 1015,1 35 0,0
19.08.2018 12:00:00 14,0 8,8 - 18 10 - - W 1014,8 16 0,0
19.08.2018 11:00:00 14,6 9,4 - 15 8 - - W 1014,6 30 0,0
19.08.2018 10:00:00 13,3 9,0 14,0 15 8 - - W 1014,3 30 0,0
19.08.2018 09:00:00 13,3 9,2 - 13 7 - - W 1013,9 24 0,0
19.08.2018 08:00:00 12,5 9,4 - 9 5 - - W 1013,3 27 0,0
19.08.2018 07:00:00 9,6 9,1 - 4 2 - - W 1013,1 23 0,0
19.08.2018 06:00:00 7,4 6,7 - 5 3 - - W 1012,8 21 0,0
19.08.2018 05:00:00 7,8 6,8 - 8 4 - - WNW 1012,3 15 0,0
19.08.2018 04:00:00 8,1 7,3 - 11 6 - - W 1012,1 17 0,0
19.08.2018 03:00:00 9,8 8,2 - 13 7 - - WNW 1011,6 17 0,0
19.08.2018 02:00:00 11,2 9,8 - 13 7 - - W 1011,1 17 0,0
19.08.2018 01:00:00 10,8 9,8 - 11 6 - - W 1010,5 16 0,0
19.08.2018 00:00:00 11,9 8,9 - 13 7 - - W 1010,0 24 0,0
18.08.2018 23:00:00 11,7 8,5 - 15 8 - - WNW 1009,2 21 0,0
18.08.2018 22:00:00 12,2 9,5 - 26 14 - - WNW 1008,3 22 0,0
18.08.2018 21:00:00 11,7 9,2 - 22 12 - - WNW 1007,2 23 0,0
18.08.2018 20:00:00 12,7 10,2 - 29 16 46 25 WNW 1005,7 13 0,0
18.08.2018 19:00:00 12,8 10,4 - 35 19 50 27 W 1004,2 12 0,0
18.08.2018 18:00:00 13,4 10,1 - 37 20 59 32 W 1003,0 16 0,0
18.08.2018 17:00:00 13,4 9,9 - 48 26 65 35 W 1001,5 17 0,0
18.08.2018 16:00:00 14,1 11,7 - 48 26 72 39 W 999,9 14 0,0
18.08.2018 15:00:00 13,0 11,3 - 50 27 72 39 WZW 999,3 4,3 0,0
18.08.2018 14:00:00 13,6 11,7 - 44 24 72 39 WZW 998,3 10 0,2
18.08.2018 13:00:00 12,5 11,1 - 54 29 74 40 WZW 997,5 1,5 1,8
18.08.2018 12:00:00 13,3 11,6 - 46 25 70 38 ZW 997,1 11 1,0
18.08.2018 11:00:00 13,0 10,7 - 46 25 59 32 ZW 997,5 7 0,2
18.08.2018 10:00:00 11,7 10,5 14,2 41 22 65 35 ZW 997,6 6 2,0
18.08.2018 09:00:00 12,3 10,5 - 31 17 55 30 ZW 997,6 4,3 1,8
18.08.2018 08:00:00 11,6 10,9 - 29 16 55 30 ZW 997,9 16 1,6
18.08.2018 07:00:00 11,8 10,7 - 28 15 48 26 ZW 997,9 4,9 0,0
18.08.2018 06:00:00 11,5 10,5 - 34 18 52 28 ZW 998,1 17 0,0
18.08.2018 05:00:00 11,6 10,3 - 35 19 63 34 WZW 998,0 25 0,2
18.08.2018 04:00:00 11,6 10,3 - 44 24 72 39 WZW 998,4 1,8 0,6
18.08.2018 03:00:00 12,0 10,6 - 37 20 52 28 WZW 998,4 17 0,0
18.08.2018 02:00:00 12,4 11,1 - 37 20 54 29 ZW 998,5 17 0,0
18.08.2018 01:00:00 12,7 11,7 - 28 15 50 27 ZW 999,0 24 0,0
18.08.2018 00:00:00 13,2 12,6 - 29 16 - - ZZW 999,4 35 0,2
17.08.2018 23:00:00 12,8 12,4 - 34 18 48 26 Z 999,5 3,2 0,2
17.08.2018 22:00:00 12,6 12,0 - 34 18 50 27 Z 1000,5 4,6 0,0
17.08.2018 21:00:00 13,3 11,7 - 34 18 - - Z 1001,2 20 0,2
17.08.2018 20:00:00 12,8 11,3 - 28 15 - - Z 1002,2 11 0,0
17.08.2018 19:00:00 13,4 10,6 - 22 12 - - Z 1002,7 26 0,0
17.08.2018 18:00:00 13,6 10,9 - 26 14 - - Z 1003,5 17 0,0
17.08.2018 17:00:00 14,8 10,3 - 29 16 - - Z 1004,0 27 0,0
17.08.2018 16:00:00 14,3 9,7 - 34 18 46 25 ZW 1004,4 30 0,0
17.08.2018 15:00:00 15,8 9,2 - 31 17 50 27 ZW 1004,5 35 0,0
17.08.2018 14:00:00 15,7 11,0 - 28 15 48 26 ZW 1004,4 21 0,0
17.08.2018 13:00:00 13,8 9,4 - 37 20 46 25 ZW 1004,7 45 0,0
17.08.2018 12:00:00 13,3 9,1 - 35 19 46 25 ZW 1004,1 20 0,0
17.08.2018 11:00:00 14,5 10,6 - 31 17 - - ZW 1003,8 40 0,2
17.08.2018 10:00:00 14,0 10,5 14,4 28 15 - - ZW 1003,6 30 0,0
17.08.2018 09:00:00 13,3 10,5 - 26 14 - - WZW 1003,2 28 0,0
17.08.2018 08:00:00 12,9 11,0 - 22 12 - - WZW 1002,8 22 0,0
17.08.2018 07:00:00 11,7 10,5 - 18 10 - - ZW 1002,4 20 1,4
17.08.2018 06:00:00 11,4 10,8 - 22 12 - - ZW 1001,9 10 0,0
17.08.2018 05:00:00 11,2 10,4 - 24 13 - - ZW 1001,5 24 0,6
17.08.2018 04:00:00 11,0 10,3 - 21 11 - - ZW 1001,3 19 0,0
17.08.2018 03:00:00 10,8 10,2 - 21 11 - - ZW 1001,2 25 0,0
17.08.2018 02:00:00 11,4 10,5 - 24 13 - - ZZW 1001,0 23 0,4
17.08.2018 01:00:00 11,9 11,2 - 22 12 - - ZW 1000,9 6 0,4
17.08.2018 00:00:00 11,0 10,1 - 21 11 - - ZZW 1000,9 26 0,2
16.08.2018 23:00:00 10,8 9,8 - 21 11 - - ZW 1000,7 20 0,0
16.08.2018 22:00:00 11,4 10,3 - 21 11 - - ZW 1000,5 24 0,0
16.08.2018 21:00:00 12,0 9,7 - 24 13 - - ZW 1000,1 30 0,0
16.08.2018 20:00:00 13,1 10,0 - 28 15 - - ZZW 999,7 40 0,0
16.08.2018 19:00:00 14,8 10,2 - 29 16 - - Z 999,4 18 0,0
16.08.2018 18:00:00 15,1 8,7 - 34 18 - - ZW 999,5 35 0,0
16.08.2018 17:00:00 16,1 8,5 - 29 16 46 25 ZW 999,9 25 0,0
16.08.2018 16:00:00 15,8 8,8 - 31 17 - - ZW 999,9 35 0,0
16.08.2018 15:00:00 16,5 9,6 - 26 14 - - ZW 999,9 35 0,0
16.08.2018 14:00:00 15,5 9,5 - 28 15 - - Z 1000,1 23 0,0
16.08.2018 13:00:00 16,2 8,2 - 31 17 - - Z 999,9 35 0,0
16.08.2018 12:00:00 16,6 9,4 - 28 15 - - Z 1000,1 22 0,0
16.08.2018 11:00:00 15,6 10,1 - 24 13 - - Z 1000,2 22 0,0
16.08.2018 10:00:00 14,9 11,1 14,5 26 14 - - ZZW 1000,1 26 0,0
16.08.2018 09:00:00 13,5 10,9 - 26 14 - - ZZW 1000,3 18 0,0
16.08.2018 08:00:00 12,6 11,0 - 22 12 - - ZZW 1000,2 13 0,0
16.08.2018 07:00:00 11,7 10,7 - 21 11 - - ZW 999,9 12 0,0
16.08.2018 06:00:00 10,3 9,7 - 18 10 - - ZW 1000,0 11 0,0
16.08.2018 05:00:00 10,4 9,8 - 16 9 - - ZZW 1000,0 11 0,0
16.08.2018 04:00:00 10,4 9,7 - 18 10 - - ZW 1000,1 12 0,0
16.08.2018 03:00:00 11,2 10,1 - 18 10 - - ZW 999,8 16 0,0
16.08.2018 02:00:00 12,8 11,3 - 24 13 - - ZW 999,9 40 0,0
16.08.2018 01:00:00 12,8 11,3 - 22 12 - - Z 1000,0 35 0,0
16.08.2018 00:00:00 12,6 11,7 - 24 13 - - Z 999,7 45 0,0
15.08.2018 23:00:00 12,4 11,9 - 22 12 - - Z 1000,0 28 0,0
15.08.2018 22:00:00 12,2 11,8 - 18 10 - - Z 1000,0 35 0,2
15.08.2018 21:00:00 12,1 11,8 - 16 9 - - Z 1000,0 30 0,2
15.08.2018 20:00:00 12,2 11,7 - 18 10 - - Z 1000,5 12 0,8
15.08.2018 19:00:00 12,4 11,7 - 21 11 - - ZZW 1000,9 5 1,8
15.08.2018 18:00:00 13,6 12,8 - 22 12 - - ZZW 1001,2 12 0,8
15.08.2018 17:00:00 15,1 12,7 - 22 12 - - Z 1001,6 45 0,0
15.08.2018 16:00:00 15,0 12,9 - 21 11 - - Z 1002,2 45 0,0
15.08.2018 15:00:00 15,3 13,4 - 24 13 - - Z 1002,4 40 0,0
15.08.2018 14:00:00 14,7 12,5 - 22 12 - - ZZW 1002,9 35 0,0
15.08.2018 13:00:00 14,8 12,3 - 26 14 - - ZW 1003,4 26 0,0
15.08.2018 12:00:00 15,7 12,6 - 28 15 - - Z 1003,4 45 0,0
15.08.2018 11:00:00 14,3 11,7 - 24 13 - - Z 1003,6 40 0,0
15.08.2018 10:00:00 14,6 11,7 14,7 29 16 - - ZW 1003,8 30 0,0
15.08.2018 09:00:00 13,9 11,9 - 26 14 - - ZW 1003,6 40 0,0
15.08.2018 08:00:00 13,6 12,6 - 18 10 - - ZW 1003,5 28 0,0
15.08.2018 07:00:00 13,1 12,7 - 18 10 - - ZZW 1003,4 35 0,0
15.08.2018 06:00:00 12,8 12,3 - 16 9 - - ZW 1003,5 40 0,0
15.08.2018 05:00:00 12,7 12,5 - 18 10 - - ZW 1003,5 45 0,0
15.08.2018 04:00:00 12,8 12,5 - 18 10 - - ZW 1003,9 3,9 0,0
15.08.2018 03:00:00 12,9 12,6 - 16 9 - - WZW 1003,9 45 0,0
15.08.2018 02:00:00 13,2 13,1 - 21 11 - - ZW 1004,3 30 0,0
15.08.2018 01:00:00 13,2 13,1 - 18 10 - - ZZW 1004,3 1,9 0,2
15.08.2018 00:00:00 13,2 13,0 - 18 10 - - Z 1004,8 3,9 0,2
14.08.2018 23:00:00 13,1 12,9 - 18 10 - - Z 1005,0 23 0,0
14.08.2018 22:00:00 13,0 12,7 - 13 7 - - Z 1005,5 9 0,0
14.08.2018 21:00:00 13,3 12,8 - 16 9 - - Z 1005,7 45 0,0
14.08.2018 20:00:00 13,6 13,1 - 15 8 - - ZZW 1005,7 16 0,2
14.08.2018 19:00:00 14,2 13,2 - 13 7 - - ZZW 1005,7 15 0,0
14.08.2018 18:00:00 13,9 13,6 - 11 6 - - ZZO 1005,5 26 0,2
14.08.2018 17:00:00 13,5 13,2 - 11 6 - - ZZO 1006,3 17 0,0
14.08.2018 16:00:00 13,7 12,4 - 18 10 - - ZZO 1006,6 15 0,0
14.08.2018 15:00:00 14,1 13,1 - 22 12 - - ZZO 1006,8 5 0,0
14.08.2018 14:00:00 13,9 11,9 - 22 12 - - Z 1007,4 15 0,0
14.08.2018 13:00:00 14,1 11,2 - 22 12 - - Z 1007,2 35 0,0
14.08.2018 12:00:00 14,5 11,7 - 22 12 - - Z 1007,4 30 0,0
14.08.2018 11:00:00 14,3 11,7 - 18 10 - - ZZO 1007,5 30 0,0
14.08.2018 10:00:00 14,2 11,0 14,7 16 9 - - ZZO 1007,6 35 0,0
14.08.2018 09:00:00 13,7 11,0 - 15 8 - - ZZO 1007,9 50 0,0
14.08.2018 08:00:00 13,3 11,4 - 13 7 - - ZZO 1008,2 50 0,0
14.08.2018 07:00:00 12,8 11,3 - 13 7 - - ZZO 1008,4 40 0,0
14.08.2018 06:00:00 10,6 10,4 - 5 3 - - ZZO 1008,4 30 0,0
14.08.2018 05:00:00 9,6 9,3 - 2 1 - - NW 1008,7 30 0,0
14.08.2018 04:00:00 9,3 9,0 - 2 1 - - W 1008,9 30 0,0
14.08.2018 03:00:00 8,5 8,3 - 2 1 - - N 1009,5 35 0,0
14.08.2018 02:00:00 7,5 6,9 - 4 2 - - WZW 1009,9 35 0,0
14.08.2018 01:00:00 9,3 9,0 - 2 1 - - W 1010,0 45 0,0
14.08.2018 00:00:00 7,4 6,7 - 0 0 - - N 1009,9 40 0,0

tt = temperatuur
td = dauwpunt
tt -20cm = temperatuur -20cm
ff = windsnelheid
fx = windstoten
dd = windrichting
ppp = luchtdruk
vv = zicht
rr = neerslag

Weerstations in de omgeving